Regional Weather Roundup
Issued by NWS

Home | Current Version | Previous Version | Text Only | Print | Product List | Glossary Off
Versions: 1 2 3 4 5 6 7 8 9 10 11 12 13 14 15 16 17 18 19 20 21 22 23 24 25 26 27 28 29 30 31 32 33 34 35 36 37 38 39 40 41 42 43 44 45 46 47 48 49 50

000
ASUS43 KIND 271709
RWRIN

WEATHER ROUNDUP FOR INDIANA
NATIONAL WEATHER SERVICE INDIANAPOLIS IN
100 PM EDT TUE JUN 27 2017

NOTE: "FAIR" INDICATES FEW OR NO CLOUDS BELOW 12,000 FEET WITH NO
SIGNIFICANT WEATHER AND/OR OBSTRUCTIONS TO VISIBILITY.

* - STATION DOES NOT REPORT WEATHER SUCH AS PRECIPITATION OR FOG.

+ - STATION NOT QUALITY CONTROLLED BY THE NATIONAL WEATHER SERVICE.
    USE DATA WITH CAUTION...ESPECIALLY DEWPOINT AND RELATIVE
    HUMIDITY OBSERVATIONS.

INZ001>003-010>013-019-020-271800-
NORTHWEST INDIANA

CITY           SKY/WX    TMP DP  RH WIND       PRES   REMARKS
GARY /AIRPORT/ MOSUNNY   72  43  35 CALM      30.13F
KNOX *+        PTSUNNY   70  36  28 NW9       30.13F
LA PORTE +     SUNNY     70  44  39 W10G21    30.14S
MICHIGAN CITY+ SUNNY     70  46  43 W8        30.14F
MONTICELLO +   MOSUNNY   69  46  44 W7        30.15F
VALPARAISO     MOSUNNY   74  46  36 NW10      30.13F

$$

LMZ046-743>745-271800-
SOUTHERN LAKE MICHIGAN

STATION/POSITION TIME  TEMP    WIND        PRES    WAVE
                       AIR SEA DIR/SP/G            HT
                 (UTC) (F)     (DEG/KT/KT) (MB)    (FT)
BURNS HARBOR     1630   65     330/  5/  7 1021.0S
MICHIGAN CITY    1640   64     260/ 10/ 11   N/A
5NW MICH CITY    1700   64 66  280/  6/ 10   N/A     2

$$

INZ004-005-014>016-021>024-271800-
NORTH CENTRAL INDIANA

CITY           SKY/WX    TMP DP  RH WIND       PRES   REMARKS
ELKHART        MOSUNNY   72  45  37 W9        30.12F
GOSHEN         PTSUNNY   67  47  48 W14       30.12F
LOGANSPORT +   MOSUNNY   68  48  49 NW5       30.16S
PERU/GRISSOM   MOSUNNY   68  49  50 CALM      30.14F
ROCHESTER +    MOSUNNY   70  46  43 W9        30.15S
SOUTH BEND     SUNNY     70  46  42 W14G21    30.12F
WARSAW +       PTSUNNY   68  46  45 W5        30.13F

$$

INZ006>009-017-018-025>027-271800-
NORTHEAST INDIANA

CITY           SKY/WX    TMP DP  RH WIND       PRES   REMARKS
AUBURN +       MOSUNNY   68  43  40 W12       30.13F
FORT WAYNE     MOSUNNY   69  46  43 W7        30.14F
HUNTINGTON +   MOSUNNY   65  46  48 NW5       30.14F
KENDALLVILLE + MOSUNNY   68  45  44 W12G21    30.13F

$$

INZ028-029-035-036-043>045-051>053-271800-
WEST CENTRAL INDIANA

CITY           SKY/WX    TMP DP  RH WIND       PRES   REMARKS
CRAWFORDSVL +  SUNNY     66  46  48 NW6       30.16F
GREENCASTLE +  SUNNY     68  45  42 CALM      30.17F
LAFAYETTE      SUNNY     69  47  45 CALM      30.15F
TERRE HAUTE    SUNNY     71  46  40 NE7       30.17F

$$

INZ030>032-037>040-046>048-054>057-064-065-271800-
CENTRAL INDIANA

CITY           SKY/WX    TMP DP  RH WIND       PRES   REMARKS
CP ATTERBURY + MOSUNNY   70  48  46 NW8       30.17F
COLUMBUS       MOSUNNY   68  39  34 N9        30.17S
FRANKFORT +    MOSUNNY   70  46  42 NW3       30.18S
GREENWOOD *+   SUNNY     69  46  44 CALM      30.17F
INDIANAPOLIS   MOSUNNY   69  47  45 N7        30.16F
-EAGLE CREEK   SUNNY     69  47  45 VRB7      30.15F
KOKOMO +       MOSUNNY   67  47  48 NW8       30.16F
MT COMFORT *+  MOSUNNY   68  48  49 N7        30.17F
SHELBYVILLE    MOSUNNY   70  47  43 N6        30.16S
ZIONSVILLE +   MOSUNNY   66  47  50 NW8       30.16F

$$

INZ033-034-041-042-049-050-058-059-271800-
EAST CENTRAL INDIANA

CITY           SKY/WX    TMP DP  RH WIND       PRES   REMARKS
MUNCIE         SUNNY     68  45  43 NW5       30.15F
RICHMOND +     MOSUNNY   64  48  55 NW9       30.16S

$$

INZ060-061-067>069-081>083-085>088-271800-
SOUTHWEST INDIANA

CITY           SKY/WX    TMP DP  RH WIND       PRES   REMARKS
EVANSVILLE     MOSUNNY   75  51  43 VRB3      30.16S
HUNTINGBURG *+ SUNNY     72  53  51 VRB5      30.16F
WASHINGTON +   MOSUNNY   71  45  38 CALM      30.16F

$$

INZ062-063-066-070>080-084-089>092-271800-
SOUTH CENTRAL AND SOUTHEAST INDIANA

CITY           SKY/WX    TMP DP  RH WIND       PRES   REMARKS
BEDFORD +      MOSUNNY   70  46  43 CALM      30.16
BLOOMINGTON    MOSUNNY   70  47  43 VRB6      30.16F
MADISON *+     SUNNY     72  43  35 NW6       30.18F
NORTH VERNON + SUNNY     68  48  49 N5        30.17F
SEYMOUR +      SUNNY     72  50  46 NW7       30.16F

$$





USA.gov is the U.S. government's official web portal to all federal, state and local government web resources and services.